Location: Chevoux
(46.3801°N, 4.9476°E)
Time: 03:50:25
(UTC+00:00)

ISS - Pass Details

Date: 03 December 2021
Orbit: 413 x 422 km, 51.6° (Epoch: 22 January)

Event Time Altitude Azimuth Distance (km) Brightness Sun altitude
Rises 17:37:05 0° 296° (WNW) 2,385 0.9 -17.0°
Reaches altitude 10° 17:39:12 10° 300° (WNW) 1,516 -0.3 -17.4°
Maximum altitude 17:42:36 67° 23° (NNE) 462 -3.8 -17.9°
Enters shadow 17:43:02 58° 70° (ENE) 497 -3.8 -18.0°
